Marshalltown, IA

3:10 PM CDT on September 25, 2016 (GMT -0500)
Marshalltown Municipal

Weather History for KMIW - November, 2012

Change the Weather History Date:

Sunday, November 18, 2012

  Actual Average Record
Temperature  
Mean Temperature 49 °F 35 °F  
Max Temperature 60 °F 45 °F 73 °F (1999)
Min Temperature 38 °F 25 °F 5 °F (2014)
Degree Days  
Heating Degree Days 16 30  
Month to date heating degree days 403 459  
Since 1 July heating degree days 1033 1092  
Cooling Degree Days 0 0  
Month to date cooling degree days 0 0  
Year to date cooling degree days 1082 728  
Moisture  
Dew Point 32 °F    
Average Humidity 56    
Maximum Humidity 76    
Minimum Humidity 36    
Precipitation  
Precipitation 0.00 in 0.07 in 0.76 in (2004)
Month to date precipitation 0.99 1.72  
Sea Level Pressure  
Sea Level Pressure 30.22 in    
Wind  
Wind Speed 13 mph (SSE)    
Max Wind Speed 20 mph    
Max Gust Speed 24 mph    
Visibility 10 miles    
Events      
T = Trace of Precipitation, MM = Missing Value Source: NWS Daily Summary

Daily Weather History Graph

Daily Weather History Graph

Search for Another Location

Airport or City:

Trip Planner

Search our weather history database for the weather conditions in past years. The results will help you decide how hot, cold, wet, or windy it might be!

Date:

Astronomy

Nov. 18, 2012 Rise Set
Actual Time 7:06 AM CST 4:47 PM CST
Civil Twilight 6:35 AM CST 5:17 PM CST
Nautical Twilight 6:01 AM CST 5:51 PM CST
Astronomical Twilight 5:28 AM CST 6:24 PM CST
Moon 11:32 AM CST (11/18) 10:09 PM CST (11/18)
Length of Visible Light 10h 41m
Length of Day
9h 41m
Waxing Crescent, 30% of the Moon is Illuminated
Nov 18
Waxing Crescent
Nov 20
First Quarter
Nov 28
Full
Dec 6
Last Quarter
Dec 13
New

Hourly Weather History & Observations

Time (CST) Temp. Windchill Dew Point Humidity Pressure Visibility Wind Dir Wind Speed Gust Speed Precip Events Conditions
12:53 AM 41.0 °F 35.8 °F 30.9 °F 67% 30.29 in 10.0 mi SSE 8.1 mph - N/A   Clear
1:53 AM 39.9 °F 33.9 °F 30.0 °F 68% 30.29 in 10.0 mi SE 9.2 mph - N/A   Clear
2:53 AM 41.0 °F 33.5 °F 30.0 °F 65% 30.28 in 10.0 mi SSE 13.8 mph - N/A   Scattered Clouds
3:53 AM 39.9 °F 32.5 °F 30.0 °F 68% 30.27 in 10.0 mi SSE 12.7 mph - N/A   Partly Cloudy
4:53 AM 39.0 °F 31.0 °F 30.0 °F 70% 30.26 in 10.0 mi SSE 13.8 mph - N/A   Clear
5:53 AM 37.9 °F 29.6 °F 30.0 °F 73% 30.25 in 10.0 mi SSE 13.8 mph - N/A   Clear
6:53 AM 37.9 °F 29.6 °F 30.0 °F 73% 30.25 in 10.0 mi SSE 13.8 mph - N/A   Clear
7:53 AM 39.0 °F 31.8 °F 30.0 °F 70% 30.25 in 10.0 mi SSE 11.5 mph - N/A   Clear
8:53 AM 43.0 °F 37.2 °F 30.9 °F 62% 30.25 in 10.0 mi SSE 10.4 mph - N/A   Clear
9:53 AM 46.0 °F 39.9 °F 30.9 °F 56% 30.25 in 10.0 mi SSE 13.8 mph - N/A   Clear
10:53 AM 50.0 °F - 32.0 °F 50% 30.25 in 10.0 mi South 11.5 mph - N/A   Clear
11:53 AM 53.1 °F - 33.1 °F 47% 30.22 in 10.0 mi South 15.0 mph - N/A   Clear
12:53 PM 57.9 °F - 34.0 °F 41% 30.20 in 10.0 mi South 16.1 mph - N/A   Clear
2:53 PM 59.0 °F - 32.0 °F 36% 30.17 in 10.0 mi SSE 15.0 mph - N/A   Clear
3:53 PM 57.0 °F - 32.0 °F 39% 30.17 in 10.0 mi SSE 13.8 mph - N/A   Clear
4:53 PM 54.0 °F - 33.1 °F 45% 30.18 in 10.0 mi SSE 13.8 mph - N/A   Clear
5:53 PM 53.1 °F - 34.0 °F 48% 30.19 in 10.0 mi SSE 15.0 mph - N/A   Clear
6:53 PM 51.1 °F - 34.0 °F 52% 30.19 in 10.0 mi SSE 10.4 mph - N/A   Clear
7:53 PM 50.0 °F - 34.0 °F 54% 30.18 in 10.0 mi SSE 12.7 mph - N/A   Clear
8:53 PM 51.1 °F - 34.0 °F 52% 30.18 in 10.0 mi SSE 13.8 mph - N/A   Mostly Cloudy
9:53 PM 52.0 °F - 33.1 °F 49% 30.17 in 10.0 mi SSE 15.0 mph - N/A   Partly Cloudy
10:53 PM 51.1 °F - 33.1 °F 50% 30.16 in 10.0 mi SSE 13.8 mph - N/A   Mostly Cloudy
11:53 PM 51.1 °F - 33.1 °F 50% 30.17 in 10.0 mi SSE 11.5 mph - N/A   Overcast